Location: Kopernik Observatory
(42.0014°N, 76.0372°W)
Time: 16:48:48
(UTC-04:00)

Daily predictions for brighter satellites

Satellite Brightness Start Highest point End
(mag) Time Altitude Azimuth Time Altitude Azimuth Time Altitude Azimuth
NOAA 12 4.3 19:42:45 10° S 19:48:04 80° WSW 19:53:24 10° NNW
Spot 2 Rocket 4.1 19:44:02 10° SE 19:48:44 39° ENE 19:53:28 10° N
Tiangong 1 2.2 19:48:12 10° W 19:50:56 34° SSW 19:53:38 10° SE
Cosmos 1707 3.7 19:48:45 10° NNW 19:52:34 53° W 19:56:21 10° S
Abrixas 2.8 19:50:04 10° NW 19:52:50 47° NNE 19:55:35 10° E
Meteor 1-24 Rocket 3.7 19:48:13 10° N 19:53:44 76° E 19:59:26 10° SSE
Cosmos 2082 Rocket 3.2 19:48:49 10° N 19:53:44 29° NE 19:58:37 10° ESE
Cosmos 1812 Rocket 3.5 19:51:06 10° S 19:55:31 82° E 19:59:55 10° N
Helios 1B rocket 3.9 19:53:50 10° NE 19:56:36 17° E 19:59:21 10° SE
Cosmos 1758 4.3 19:53:32 10° SE 19:56:50 26° E 20:00:10 10° NNE
Lacrosse 5 1.9 19:51:46 10° SW 19:56:51 86° SE 20:01:56 10° NE
Cosmos 990 Rocket 4.0 19:52:02 10° SSW 19:57:17 89° ESE 20:02:34 10° NNE
FREGAT/IRIS 3.2 19:58:35 10° S 20:01:37 61° W 20:04:40 10° NNW
Cosmos 1821 Rocket 4.2 19:56:07 10° S 20:02:30 84° W 20:08:53 10° N
Lacrosse 4 Rocket 3.2 20:00:47 10° WSW 20:04:29 34° NW 20:08:13 10° NNE
Cosmos 1953 3.2 20:01:16 10° SSE 20:04:48 29° E 20:08:21 10° NNE
Envisat 4.2 20:03:06 10° ESE 20:06:58 22° ENE 20:10:51 10° NNE
GP-B 4.2 20:04:56 10° SE 20:08:32 25° ENE 20:12:08 10° NNE
USA 186 2.6 20:08:21 15° E 20:08:59 17° ENE 20:10:31 10° NNE
Helios 1A 3.9 20:07:18 10° SE 20:10:54 30° ENE 20:14:34 10° N
CZ-3 Stage 3 4.5 19:12:17 10° WSW 20:12:20 55° S 20:20:19 13° ESE
Cosmos 1271 Rocket 4.2 20:11:20 10° SE 20:14:08 18° E 20:16:55 10° NE
Resurs 01 Rocket 1.6 20:10:15 10° SSE 20:14:38 70° ENE 20:19:02 10° N
Cosmos 1125 Rocket 3.8 20:09:47 10° S 20:14:39 43° ESE 20:19:34 10° NNE
Cosmos 1766 3.5 20:12:28 10° SSW 20:16:20 73° W 20:20:14 10° N
Cosmos 1048 Rocket 4.4 20:12:46 10° N 20:17:37 41° ENE 20:22:07 12° SE
Geosat 4.3 20:15:19 10° NE 20:20:07 44° ESE 20:24:54 10° S
Cosmos 1605 Rocket 4.0 20:14:20 10° S 20:20:35 75° E 20:26:57 10° N
Cosmos-2242 3.9 20:19:17 10° SE 20:22:50 26° E 20:26:23 10° NNE
Lacrosse 5 rocket 2.7 20:21:21 10° NNW 20:24:37 24° NNE 20:26:41 16° ENE
ERS-1 Rocket 4.5 20:23:22 15° E 20:25:17 18° ENE 20:28:41 10° NNE
Fregat R/B Cluster 11 4.5 20:20:36 10° SSW 20:27:10 55° ESE 20:30:33 10° NE
SeaSat 1 3.0 20:24:11 10° SSE 20:29:02 60° WSW 20:33:56 10° NNW
Cosmos 1674 3.3 20:26:14 10° N 20:29:45 35° ENE 20:31:54 19° SE
Cosmos 2123 Rocket 4.4 20:27:55 10° NNW 20:34:13 70° W 20:40:25 10° S
SAR-Lupe-4 3.6 20:31:34 14° SSE 20:34:30 55° ENE 20:38:01 10° N
RESURS DK-1 4.2 20:35:20 10° NW 20:39:01 31° WSW 20:42:39 10° S
Cosmos 2344 4.2 20:34:55 10° SW 20:42:30 64° NW 20:51:16 10° NNE
CZ-2D R/B 3.4 20:39:30 10° S 20:43:21 74° WSW 20:47:16 10° NNW
BREEZE-M DEB (TANK) 3.8 20:42:00 10° NW 20:43:53 21° NNE 20:44:40 18° NE
Cosmos 1802 Rocket 4.4 20:38:22 10° SSE 20:43:54 37° E 20:49:30 10° NNE
Meteor 1-21 Rocket 4.2 20:38:06 10° N 20:43:56 76° E 20:49:50 10° SSE
Meteor 1-29 3.2 20:42:29 10° NNE 20:45:51 45° E 20:48:19 17° SSE
CZ-3B DEB 3.5 20:36:40 10° WSW 20:47:00 51° NW 20:51:48 10° NE
Cosmos 1805 3.8 20:44:31 10° SSW 20:48:22 60° W 20:52:14 10° N
Cosmos 1818 3.7 20:45:01 10° NW 20:50:28 75° WSW 20:54:41 17° SSE
GPS 2-05 Rocket1 4.3 20:48:21 10° SW 20:51:17 24° S 20:51:23 24° SSE
COSMOS 2487 2.3 20:48:16 10° NNW 20:51:51 76° ENE 20:53:15 35° SSE
ALOS 4.2 20:48:42 10° SSW 20:52:49 31° W 20:56:58 10° NNW
SAR-Lupe-1 3.9 20:51:14 23° SSE 20:53:21 84° ENE 20:56:58 10° NNW
Resurs 1-3 4.5 20:50:50 10° S 20:55:05 49° W 20:59:22 10° NNW
Cosmos 1269 Rocket 4.0 20:51:27 10° NNW 20:56:46 88° WSW 21:00:49 18° SSE
Cosmos 2061 Rocket 4.1 20:51:09 10° SSE 20:57:19 54° E 21:03:33 10° NNE
Meteor 1-4 Rocket 3.3 20:56:23 10° SSW 20:59:46 50° WNW 21:03:10 10° N
Timation 2 Rocket 3.9 20:55:28 10° NNW 21:01:49 78° ENE 21:05:26 26° SSE
Cosmos 1833 Rocket 2.6 20:56:36 10° NNW 21:02:15 85° ENE 21:05:39 25° SSE
Cosmos 1470 2.6 21:00:37 12° S 21:04:20 74° E 21:08:19 10° NNE
Cosmos 1408 Rocket 3.6 21:00:02 10° N 21:04:31 83° W 21:07:46 18° S
Cosmos 2278 Rocket 3.8 21:03:12 10° WSW 21:08:23 36° WNW 21:13:37 10° N
Cosmos 1340 Rocket 2.6 21:07:28 10° N 21:11:30 74° E 21:12:09 59° SE
Cosmos 372 Rocket 4.0 21:07:09 10° SSW 21:12:15 77° WNW 21:17:27 10° NNE
CZ-4B DEB 2.9 21:12:04 60° SW 21:12:21 65° W 21:15:27 10° NNW
Cosmos 1733 3.1 21:10:59 22° S 21:13:22 89° W 21:17:16 10° N
Cosmos 1459 Rocket 3.9 21:08:00 10° S 21:14:15 79° E 21:20:27 10° N
USA 215 3.2 21:10:40 10° NE 21:17:09 62° SE 21:23:35 10° SW
Cosmos 1842 Rocket 4.2 21:18:20 39° NE 21:18:20 39° NE 21:21:31 10° NNE
ATLAS 5 CENTAUR R/B 1.7 21:14:49 10° SSW 21:19:29 88° SE 21:24:37 10° NE
Cosmos 158 Rocket 4.3 21:14:43 10° NNW 21:19:48 66° WSW 21:22:45 26° S
Cosmos 2173 Rocket 3.9 21:13:51 10° S 21:20:01 85° E 21:26:19 10° N
ISS -1.9 21:17:04 10° SW 21:18:25 23° SW 21:18:25 23° SW
Cosmos 2297 4.4 21:18:30 10° SW 21:24:05 56° WNW 21:29:46 10° NNE
Cosmos 2151 4.1 21:20:33 10° N 21:23:15 30° NE 21:23:15 30° NE
Cosmos 1867 4.2 21:21:15 10° SW 21:26:36 57° NW 21:32:00 10° NNE
Helios 1B rocket 3.8 21:28:12 10° N 21:32:04 39° WNW 21:35:53 10° SW
Meteor 1-11 4.1 21:30:47 10° N 21:36:19 61° ENE 21:36:36 60° E
Cosmos 494 Rocket 3.9 21:32:14 10° NNW 21:37:19 65° ENE 21:37:19 65° ENE
Cosmos 2082 Rocket 3.1 21:32:36 10° NW 21:37:59 44° WSW 21:41:10 22° SSW
SL-14 R/B 4.3 21:35:35 10° N 21:38:04 38° N 21:38:04 38° N
Lacrosse 5 3.9 21:36:13 10° W 21:40:23 25° NNW 21:44:34 10° NNE
Cosmos 1328 4.5 21:38:12 10° N 21:41:11 49° NNW 21:41:11 49° NNW
SPOT 5 3.5 21:45:02 49° NE 21:45:02 49° NE 21:49:38 10° N
Meteor 2-17 Rocket 4.4 21:40:14 21° S 21:44:33 87° W 21:50:45 10° N
Envisat 3.9 21:42:59 24° SSW 21:45:40 46° W 21:50:34 10° NNW
Cosmos 1939 Rocket 3.9 21:45:32 40° SW 21:46:11 43° W 21:50:11 10° NNW
Meteor 1-16 Rocket 4.2 21:44:17 43° S 21:46:22 86° E 21:52:20 10° N
USA 267 3.9 21:48:09 37° ENE 21:49:49 43° NNE 21:55:55 10° NW
MetOp-A 4.1 21:50:03 70° NE 21:50:03 70° NE 21:55:10 10° N
ARGOS 3.6 21:51:33 47° NE 21:51:33 47° NE 21:55:54 10° N
H-2A R/B 3.4 21:52:51 28° NE 21:52:51 28° NE 21:56:03 10° N
Cosmos 2016 Rocket 4.0 21:47:02 18° SSW 21:51:48 76° W 21:57:59 10° N
Cosmos 1725 Rocket 3.8 21:59:08 70° S 21:59:56 87° E 22:06:10 10° N
Terra 4.0 22:04:46 15° NNE 22:04:46 15° NNE 22:05:54 10° NNE
ERS-1 Rocket 3.4 22:03:22 57° WSW 22:03:36 57° W 22:08:34 10° NNW
Lacrosse 5 rocket 3.1 22:00:19 10° NW 22:02:25 28° WNW 22:02:25 28° WNW
Tsikada Rocket 4.0 22:11:04 10° N 22:17:16 75° W 22:17:28 74° WSW
Cosmos 2369 Rocket 4.3 22:34:54 16° NNE 22:34:54 16° NNE 22:35:55 10° NNE
CZ-3B DEB 4.4 22:56:36 10° NW 22:59:36 15° NNW 22:59:39 15° NNW
USA 215 4.1 22:53:50 10° NE 23:00:00 46° NNW 23:06:09 10° W
ATLAS 5 CENTAUR R/B 4.4 23:01:35 10° WNW 23:04:58 18° NNW 23:08:34 10° N
H-2A R/B 4.3 23:33:28 21° NW 23:33:28 21° NW 23:35:30 10° NNW
USA 267 4.5 23:35:30 35° WNW 23:35:30 35° WNW 23:39:08 10° NW
